Content
SEND FEEDBACK

Daily
Averages
Monthly
Summary
Mexico

PUERTO MORELOS, QUINTANA ROO


Home > North America > Mexico > Quintana Roo
Elevation: 20 feet     Latitude: 20 51N     Longitude: 086 52W

WEATHER
 
SELECT A DAY
Number of Records: 164,004;   Date Range: 1/1/95 - 9/22/14
 
SHARE

PRINT THIS DATA

[ ← Previous Day ]
WEATHER ALMANAC - MAY 15, 2014
[ Next Day → ]
[ °C ]   °F
Weather ElementAverageHighLow
Temperature77.5 °F84.2 °F (9:50 am)71.6 °F (4:47 am)
Dewpoint72.3 °F75.2 °F (2:45 pm)69.8 °F (2:43 am)
Humidity84.4 %94 % (1:44 am)66 % (9:50 am)
Barometer29.99 in30.05 in (10:44 pm)29.91 in (3:48 am)
Wind Speed5.1 mph9.2 mph (8:44 am)
Weather ElementAverage
Visibility6.5 mi
Wind DirectionS (180 °)

Weather ElementTotal
Precipitation---
Cooling Degree Days12.9 (Base 65)
Growing Degree Days27.9 (Base 50)
Averaged from 22 records on May 15, 2014
WEATHER CONDITIONS BREAKOUT
WIND DIRECTION BREAKOUT
WEATHER BY HOUR - MAY 15, 2014
[ °C ]   °F
Local TimeTemperatureDewpointHumidityBarometerVisibilityWind DirectionWind SpeedGust SpeedPrecipitationEventsConditions
1:44 AM73.4 °F71.6 °F94 %29.98 in7.0 miCalmMostly Cloudy
2:43 AM73.4 °F69.8 °F88 %29.97 in7.0 miCalmMostly Cloudy
3:48 AM73.4 °F69.8 °F88 %29.91 in7.0 miCalmMostly Cloudy
4:47 AM71.6 °F69.8 °F94 %29.96 in7.0 miCalmMostly Cloudy
5:46 AM71.6 °F69.8 °F94 %29.97 in7.0 miNNW (340°)5.8 mphScattered Clouds
6:45 AM71.6 °F69.8 °F94 %29.94 in7.0 miCalmScattered Clouds
7:47 AM78.8 °F73.4 °F83 %30.01 in7.0 miNW (310°)3.5 mphMostly Cloudy
8:44 AM82.4 °F71.6 °F70 %30.04 in7.0 miNorth (350°)9.2 mphScattered Clouds
9:50 AM84.2 °F71.6 °F66 %29.99 in7.0 miNNE (30°)9.2 mphScattered Clouds
10:44 AM84.2 °F71.6 °F66 %30.01 in7.0 miNorth (360°)6.9 mphMostly Cloudy
11:46 AM80.6 °F71.6 °F74 %30.03 in5.0 miNorth (350°)6.9 mphRainLight Rain
12:43 PM75.2 °F73.4 °F94 %30.01 in6.0 miNE (40°)8.1 mphRainLight Rain
2:45 PM78.8 °F75.2 °F89 %29.98 in5.0 miNNW (340°)4.6 mphRainLight Rain
3:43 PM78.8 °F75.2 °F89 %29.95 in6.0 miNorth (10°)6.9 mphOvercast
4:44 PM78.8 °F75.2 °F89 %29.97 in6.0 miNorth (360°)5.8 mphOvercast
5:42 PM78.8 °F75.2 °F89 %29.98 in6.0 miNorth (360°)6.9 mphOvercast
6:46 PM78.8 °F73.4 °F83 %29.97 in6.0 miNorth (360°)6.9 mphOvercast
7:42 PM77.0 °F73.4 °F89 %29.99 in6.0 miNorth (350°)5.8 mphMostly Cloudy
8:44 PM77.0 °F73.4 °F89 %30.02 in7.0 miNorth (350°)3.5 mphMostly Cloudy
9:44 PM78.8 °F71.6 °F78 %30.01 in7.0 miNNE (20°)6.9 mphMostly Cloudy
10:44 PM78.8 °F71.6 °F78 %30.05 in7.0 miNNE (20°)9.2 mphMostly Cloudy
11:45 PM78.8 °F71.6 °F78 %30.04 in7.0 miNorth (10°)5.8 mphMostly Cloudy
Hourly data recorded from MMUN, located miles away from Puerto Morelos, Quintana Roo







STORIES FROM OUR PARTNERS